| time (UTC) | temp F | wind direction | speed knots | gust knots | rain 1hr in | rain 24hr in | rain mn in | humidity % | barometer mb |
| 20260904135521 | 76 | 0.0 | 0.0 | 0.00 | 0.09 | 0.03 | 91 | 1040.0 | |
| 20260904135018 | 76 | 0.0 | 0.0 | 0.00 | 0.09 | 0.03 | 91 | 1040.1 | |
| 20260904134533 | 76 | 0.0 | 0.0 | 0.00 | 0.09 | 0.03 | 91 | 1040.1 | |
| 20260904134051 | 75 | 0.0 | 0.0 | 0.00 | 0.09 | 0.03 | 91 | 1040.1 | |
| 20260904133528 | 75 | 0.0 | 0.0 | 0.00 | 0.10 | 0.03 | 91 | 1040.2 | |
| 20260904133026 | 75 | 0.0 | 0.0 | 0.00 | 0.10 | 0.03 | 91 | 1040.2 | |
| 20260904132522 | 75 | 0.0 | 0.0 | 0.00 | 0.10 | 0.03 | 91 | 1040.0 | |
| 20260904132020 | 75 | 0.0 | 0.0 | 0.00 | 0.11 | 0.03 | 91 | 1040.0 | |
| 20260904131517 | 74 | 0.0 | 0.0 | 0.00 | 0.11 | 0.03 | 91 | 1040.1 | |
| 20260904131033 | 74 | 0.0 | 0.0 | 0.00 | 0.12 | 0.03 | 91 | 1040.0 | |
| 20260904130530 | 74 | 0.0 | 0.0 | 0.00 | 0.13 | 0.03 | 91 | 1040.1 | |
| 20260904130027 | 74 | 0.0 | 0.0 | 0.00 | 0.14 | 0.03 | 91 | 1040.0 | |
| 20260904125524 | 74 | 0.0 | 0.0 | 0.00 | 0.15 | 0.03 | 91 | 1039.8 | |
| 20260904125022 | 74 | 0.0 | 0.0 | 0.03 | 0.15 | 0.03 | 91 | 1039.7 | |
| 20260904124519 | 74 | 0.0 | 0.0 | 0.03 | 0.17 | 0.03 | 90 | 1039.7 | |
| 20260904124035 | 74 | 164 | 0.0 | 0.9 | 0.03 | 0.17 | 0.03 | 90 | 1039.8 |
| 20260904123532 | 74 | 164 | 0.0 | 0.9 | 0.03 | 0.18 | 0.03 | 90 | 1039.7 |
| 20260904123109 | 74 | 0.0 | 0.0 | 0.03 | 0.19 | 0.03 | 90 | 1039.6 | |
| 20260904122546 | 74 | 0.0 | 0.0 | 0.03 | 0.20 | 0.03 | 90 | 1039.5 | |
| 20260904122023 | 74 | 164 | 0.0 | 0.9 | 0.03 | 0.20 | 0.03 | 90 | 1039.5 |
| 20260904121520 | 74 | 0.0 | 0.0 | 0.03 | 0.20 | 0.03 | 90 | 1039.4 | |
| 20260904121016 | 74 | 0.0 | 0.0 | 0.03 | 0.20 | 0.03 | 90 | 1039.5 | |
| 20260904120533 | 74 | 0.0 | 0.0 | 0.03 | 0.20 | 0.03 | 90 | 1039.4 | |
| 20260904120030 | 74 | 0.0 | 0.0 | 0.03 | 0.20 | 0.03 | 90 | 1039.4 | |
| 20260904115527 | 74 | 0.0 | 0.0 | 0.02 | 0.20 | 0.02 | 90 | 1039.5 | |
| 20260904115044 | 74 | 0.0 | 0.0 | 0.00 | 0.18 | 0.00 | 90 | 1039.3 | |
| 20260904114522 | 73 | 0.0 | 0.0 | 0.00 | 0.18 | 0.00 | 90 | 1039.3 | |
| 20260904114018 | 73 | 0.0 | 0.0 | 0.00 | 0.19 | 0.00 | 90 | 1039.4 | |
| 20260904113535 | 73 | 0.0 | 0.0 | 0.00 | 0.19 | 0.00 | 90 | 1039.1 | |
| 20260904113052 | 73 | 0.0 | 0.0 | 0.00 | 0.20 | 0.00 | 90 | 1039.1 | |
| 20260904112529 | 73 | 0.0 | 0.0 | 0.00 | 0.20 | 0.00 | 90 | 1038.9 | |
| 20260904112026 | 73 | 0.0 | 0.0 | 0.00 | 0.22 | 0.00 | 90 | 1038.8 | |
| 20260904111523 | 73 | 0.0 | 0.0 | 0.00 | 0.22 | 0.00 | 89 | 1039.0 | |
| 20260904111020 | 74 | 0.0 | 0.0 | 0.00 | 0.22 | 0.00 | 89 | 1038.8 | |
| 20260904110518 | 74 | 0.0 | 0.0 | 0.00 | 0.22 | 0.00 | 89 | 1038.8 | |
| 20260904110055 | 74 | 0.0 | 0.0 | 0.00 | 0.22 | 0.00 | 89 | 1038.9 | |
| 20260904105531 | 74 | 0.0 | 0.0 | 0.00 | 0.22 | 0.00 | 89 | 1038.9 | |
| 20260904105029 | 74 | 0.0 | 0.0 | 0.00 | 0.22 | 0.00 | 89 | 1038.9 | |
| 20260904104525 | 75 | 0.0 | 0.0 | 0.00 | 0.22 | 0.00 | 89 | 1039.0 | |
| 20260904104022 | 75 | 0.0 | 0.0 | 0.00 | 0.22 | 0.00 | 89 | 1039.1 | |
| 20260904103520 | 75 | 0.0 | 0.0 | 0.00 | 0.22 | 0.00 | 89 | 1039.0 | |
| 20260904103016 | 75 | 0.0 | 0.0 | 0.00 | 0.22 | 0.00 | 89 | 1039.0 | |
| 20260904102532 | 75 | 0.0 | 0.0 | 0.00 | 0.22 | 0.00 | 89 | 1038.9 | |
| 20260904102029 | 76 | 0.0 | 0.0 | 0.00 | 0.22 | 0.00 | 89 | 1038.9 | |
| 20260904101526 | 75 | 0.0 | 0.0 | 0.00 | 0.22 | 0.00 | 89 | 1038.9 | |
| 20260904101024 | 75 | 0.0 | 0.0 | 0.00 | 0.22 | 0.00 | 89 | 1038.9 | |
| 20260904100521 | 75 | 0.0 | 0.0 | 0.00 | 0.22 | 0.00 | 89 | 1038.9 | |
| 20260904100018 | 75 | 0.0 | 0.0 | 0.00 | 0.22 | 0.00 | 89 | 1038.9 | |
| 20260904095534 | 75 | 0.0 | 0.0 | 0.00 | 0.22 | 0.00 | 89 | 1038.9 | |
| 20260904095031 | 75 | 0.0 | 0.0 | 0.00 | 0.22 | 0.00 | 89 | 1039.0 | |
| 20260904094527 | 75 | 0.0 | 0.0 | 0.00 | 0.22 | 0.00 | 89 | 1039.0 | |
| 20260904094025 | 75 | 0.0 | 0.0 | 0.00 | 0.22 | 0.00 | 89 | 1039.1 | |
| 20260904093522 | 75 | 0.0 | 0.0 | 0.00 | 0.22 | 0.00 | 89 | 1039.1 | |
| 20260904093019 | 75 | 0.0 | 0.0 | 0.00 | 0.22 | 0.00 | 89 | 1039.1 | |
| 20260904092516 | 75 | 0.0 | 0.0 | 0.00 | 0.22 | 0.00 | 89 | 1039.0 | |
| 20260904092032 | 75 | 0.0 | 0.0 | 0.00 | 0.22 | 0.00 | 89 | 1038.9 | |
| 20260904091549 | 75 | 0.0 | 0.0 | 0.00 | 0.22 | 0.00 | 89 | 1039.0 | |
| 20260904091026 | 75 | 0.0 | 0.0 | 0.00 | 0.22 | 0.00 | 88 | 1038.9 | |
| 20260904090524 | 75 | 0.0 | 0.0 | 0.00 | 0.22 | 0.00 | 88 | 1038.9 | |
| 20260904090041 | 75 | 0.0 | 0.0 | 0.00 | 0.22 | 0.00 | 88 | 1039.0 | |
| 20260904085519 | 75 | 0.0 | 0.0 | 0.00 | 0.22 | 0.00 | 88 | 1038.9 | |
| 20260904085056 | 76 | 0.0 | 0.0 | 0.00 | 0.22 | 0.00 | 88 | 1038.9 | |
| 20260904084531 | 76 | 0.0 | 0.0 | 0.00 | 0.22 | 0.00 | 88 | 1038.9 | |
| 20260904084049 | 76 | 0.0 | 0.0 | 0.00 | 0.22 | 0.00 | 87 | 1038.8 | |
| 20260904083526 | 77 | 0.0 | 0.0 | 0.00 | 0.22 | 0.00 | 87 | 1038.6 | |
| 20260904083043 | 78 | 0.0 | 0.0 | 0.00 | 0.22 | 0.00 | 88 | 1038.7 | |
| 20260904082520 | 78 | 0.0 | 0.0 | 0.00 | 0.22 | 0.00 | 88 | 1038.5 | |
| 20260904082017 | 78 | 0.0 | 0.0 | 0.00 | 0.22 | 0.00 | 88 | 1038.4 | |
| 20260904081533 | 78 | 0.0 | 0.0 | 0.00 | 0.22 | 0.00 | 89 | 1038.4 | |
| 20260904081030 | 78 | 0.0 | 0.0 | 0.00 | 0.22 | 0.00 | 89 | 1038.4 | |
| 20260904080527 | 78 | 0.0 | 0.0 | 0.00 | 0.22 | 0.00 | 90 | 1038.5 | |
| 20260904080024 | 78 | 0.0 | 0.0 | 0.00 | 0.22 | 0.00 | 90 | 1038.4 | |
| 20260904075521 | 77 | 0.0 | 0.0 | 0.00 | 0.22 | 0.00 | 90 | 1038.4 | |
| 20260904075018 | 77 | 0.0 | 0.0 | 0.00 | 0.22 | 0.00 | 90 | 1038.4 | |
| 20260904074554 | 77 | 0.0 | 0.0 | 0.00 | 0.22 | 0.00 | 90 | 1038.4 | |
| 20260904074051 | 77 | 0.0 | 0.0 | 0.00 | 0.22 | 0.00 | 91 | 1038.5 | |
| 20260904073528 | 76 | 0.0 | 0.0 | 0.00 | 0.22 | 0.00 | 91 | 1038.6 | |
| 20260904073025 | 76 | 0.0 | 0.0 | 0.00 | 0.22 | 0.00 | 91 | 1038.5 | |
| 20260904072523 | 76 | 0.0 | 0.0 | 0.00 | 0.22 | 0.00 | 91 | 1038.6 | |
| 20260904072040 | 76 | 0.0 | 0.0 | 0.00 | 0.22 | 0.00 | 90 | 1038.6 | |
| 20260904071516 | 77 | 0.0 | 0.0 | 0.00 | 0.22 | 0.00 | 91 | 1038.7 | |
| 20260904071032 | 77 | 0.0 | 0.0 | 0.00 | 0.22 | 0.00 | 91 | 1038.7 | |
| 20260904070529 | 77 | 0.0 | 0.0 | 0.00 | 0.22 | 0.00 | 91 | 1038.7 | |
| 20260904070026 | 76 | 0.0 | 0.0 | 0.00 | 0.22 | 0.00 | 91 | 1038.8 | |
| 20260904065523 | 76 | 0.0 | 0.0 | 0.00 | 0.22 | 0.00 | 91 | 1038.8 | |
| 20260904065020 | 76 | 0.0 | 0.0 | 0.00 | 0.22 | 0.00 | 91 | 1038.8 | |
| 20260904064537 | 76 | 0.0 | 0.0 | 0.00 | 0.22 | 0.00 | 91 | 1038.9 | |
| 20260904064033 | 76 | 0.0 | 0.0 | 0.00 | 0.22 | 0.00 | 91 | 1038.8 | |
| 20260904063530 | 76 | 0.0 | 0.0 | 0.00 | 0.22 | 0.00 | 91 | 1038.8 | |
| 20260904063027 | 75 | 0.0 | 0.0 | 0.00 | 0.22 | 0.00 | 91 | 1038.9 | |
| 20260904062524 | 75 | 0.0 | 0.0 | 0.00 | 0.22 | 0.00 | 91 | 1039.1 | |
| 20260904062021 | 75 | 0.0 | 0.0 | 0.00 | 0.22 | 0.00 | 91 | 1039.1 | |
| 20260904061519 | 75 | 0.0 | 0.0 | 0.00 | 0.22 | 0.00 | 91 | 1039.1 | |
| 20260904061035 | 75 | 0.0 | 0.0 | 0.00 | 0.22 | 0.00 | 91 | 1039.2 | |
| 20260904060531 | 74 | 0.0 | 0.0 | 0.00 | 0.22 | 0.00 | 91 | 1039.2 | |
| 20260904060028 | 74 | 0.0 | 0.0 | 0.00 | 0.22 | 0.00 | 91 | 1039.3 | |
| 20260904055525 | 74 | 0.0 | 0.0 | 0.00 | 0.22 | 0.00 | 91 | 1039.3 | |
| 20260904055022 | 74 | 0.0 | 0.0 | 0.00 | 0.22 | 0.00 | 91 | 1039.4 | |
| 20260904054520 | 74 | 0.0 | 0.0 | 0.00 | 0.22 | 0.00 | 91 | 1039.5 | |
| 20260904054037 | 74 | 0.0 | 0.0 | 0.00 | 0.22 | 0.00 | 91 | 1039.5 | |
| 20260904053533 | 74 | 0.0 | 0.0 | 0.00 | 0.22 | 0.00 | 91 | 1039.5 | |
| 20260904053030 | 74 | 0.0 | 0.0 | 0.00 | 0.22 | 0.00 | 91 | 1039.5 | |
| 20260904052527 | 74 | 0.0 | 0.0 | 0.00 | 0.22 | 0.00 | 91 | 1039.5 | |
| 20260904052025 | 74 | 0.0 | 0.0 | 0.00 | 0.22 | 0.00 | 91 | 1039.4 | |
| 20260904051522 | 74 | 0.0 | 0.0 | 0.00 | 0.22 | 0.00 | 91 | 1039.6 | |
| 20260904051019 | 74 | 0.0 | 0.0 | 0.00 | 0.22 | 0.00 | 91 | 1039.4 | |
| 20260904050516 | 75 | 0.0 | 0.0 | 0.00 | 0.22 | 0.00 | 91 | 1039.5 | |
| 20260904050032 | 75 | 0.0 | 0.0 | 0.00 | 0.22 | 0.22 | 91 | 1039.6 | |
| 20260904045529 | 75 | 0.0 | 0.0 | 0.00 | 0.22 | 0.22 | 91 | 1039.5 | |
| 20260904045046 | 75 | 0.0 | 0.0 | 0.00 | 0.22 | 0.22 | 91 | 1039.6 | |
| 20260904044523 | 75 | 0.0 | 0.0 | 0.00 | 0.22 | 0.22 | 91 | 1039.7 | |
| 20260904044021 | 75 | 0.0 | 0.0 | 0.00 | 0.22 | 0.22 | 91 | 1039.6 | |
| 20260904043518 | 75 | 0.0 | 0.0 | 0.00 | 0.22 | 0.22 | 91 | 1039.6 | |
| 20260904043034 | 75 | 0.0 | 0.0 | 0.00 | 0.22 | 0.22 | 91 | 1039.6 | |
| 20260904042531 | 75 | 0.0 | 0.0 | 0.00 | 0.22 | 0.22 | 91 | 1039.7 | |
| 20260904042048 | 75 | 0.0 | 0.0 | 0.00 | 0.22 | 0.22 | 91 | 1039.7 | |
| 20260904041525 | 75 | 0.0 | 0.0 | 0.00 | 0.22 | 0.22 | 91 | 1039.6 | |
| 20260904041022 | 75 | 0.0 | 0.0 | 0.00 | 0.22 | 0.22 | 90 | 1039.6 | |
| 20260904040519 | 75 | 0.0 | 0.0 | 0.00 | 0.22 | 0.22 | 91 | 1039.6 | |
| 20260904040035 | 75 | 0.0 | 0.0 | 0.00 | 0.22 | 0.22 | 90 | 1039.7 | |
| 20260904035532 | 75 | 164 | 0.0 | 0.9 | 0.00 | 0.22 | 0.22 | 90 | 1039.7 |
| 20260904035029 | 75 | 164 | 0.0 | 0.9 | 0.00 | 0.22 | 0.22 | 90 | 1039.6 |
| 20260904034526 | 75 | 0.0 | 0.0 | 0.00 | 0.22 | 0.22 | 90 | 1039.7 | |
| 20260904034023 | 74 | 0.0 | 0.0 | 0.00 | 0.22 | 0.22 | 90 | 1039.6 | |
| 20260904033520 | 74 | 164 | 0.0 | 1.7 | 0.00 | 0.22 | 0.22 | 90 | 1039.5 |
| 20260904033037 | 74 | 0.0 | 0.0 | 0.00 | 0.22 | 0.22 | 90 | 1039.5 | |
| 20260904032533 | 74 | 0.0 | 0.0 | 0.00 | 0.22 | 0.22 | 90 | 1039.3 | |
| 20260904032030 | 74 | 0.0 | 0.0 | 0.00 | 0.22 | 0.22 | 90 | 1039.4 | |
| 20260904031547 | 74 | 0.0 | 0.0 | 0.00 | 0.22 | 0.22 | 90 | 1039.5 | |
| 20260904031024 | 74 | 0.0 | 0.0 | 0.00 | 0.22 | 0.22 | 90 | 1039.6 | |
| 20260904030521 | 74 | 0.0 | 0.0 | 0.00 | 0.22 | 0.22 | 90 | 1039.6 | |
| 20260904030038 | 74 | 0.0 | 0.0 | 0.00 | 0.22 | 0.22 | 90 | 1039.8 | |
| 20260904025534 | 74 | 0.0 | 0.0 | 0.00 | 0.22 | 0.22 | 90 | 1039.8 | |
| 20260904025031 | 74 | 0.0 | 0.0 | 0.00 | 0.22 | 0.22 | 89 | 1039.8 | |
| 20260904024528 | 75 | 0.0 | 0.0 | 0.00 | 0.22 | 0.22 | 89 | 1039.8 | |
| 20260904024025 | 75 | 0.0 | 0.0 | 0.00 | 0.22 | 0.22 | 89 | 1039.9 | |
| 20260904023521 | 74 | 0.0 | 0.0 | 0.00 | 0.22 | 0.22 | 89 | 1039.9 | |
| 20260904023019 | 75 | 0.0 | 0.0 | 0.00 | 0.22 | 0.22 | 89 | 1039.8 | |
| 20260904022535 | 75 | 0.0 | 0.0 | 0.00 | 0.22 | 0.22 | 89 | 1039.7 | |
| 20260904022032 | 75 | 0.0 | 0.0 | 0.00 | 0.22 | 0.22 | 89 | 1039.5 | |
| 20260904021529 | 75 | 0.0 | 0.0 | 0.00 | 0.22 | 0.22 | 88 | 1039.5 | |
| 20260904021026 | 75 | 164 | 0.0 | 0.9 | 0.00 | 0.22 | 0.22 | 88 | 1039.5 |
| 20260904020523 | 75 | 0.0 | 0.0 | 0.00 | 0.22 | 0.22 | 88 | 1039.4 | |
| 20260904020020 | 75 | 0.0 | 0.0 | 0.00 | 0.22 | 0.22 | 88 | 1039.4 | |
| 20260904015517 | 75 | 0.0 | 0.0 | 0.00 | 0.22 | 0.22 | 88 | 1039.4 | |
| 20260904015034 | 75 | 0.0 | 0.0 | 0.00 | 0.22 | 0.22 | 88 | 1039.3 | |
| 20260904014531 | 75 | 0.0 | 0.0 | 0.00 | 0.22 | 0.22 | 87 | 1039.4 | |
| 20260904014029 | 75 | 0.0 | 0.0 | 0.00 | 0.22 | 0.22 | 87 | 1039.3 | |
| 20260904013526 | 75 | 0.0 | 0.0 | 0.00 | 0.22 | 0.22 | 87 | 1039.3 | |
| 20260904013023 | 76 | 0.0 | 0.0 | 0.00 | 0.22 | 0.22 | 87 | 1039.3 | |
| 20260904012520 | 76 | 0.0 | 0.0 | 0.00 | 0.22 | 0.22 | 87 | 1039.2 | |
| 20260904012017 | 76 | 164 | 0.0 | 0.9 | 0.00 | 0.22 | 0.22 | 86 | 1039.1 |
| 20260904011553 | 76 | 0.0 | 0.0 | 0.00 | 0.22 | 0.22 | 86 | 1039.1 | |
| 20260904011030 | 76 | 0.0 | 0.0 | 0.00 | 0.22 | 0.22 | 86 | 1039.0 | |
| 20260904010527 | 77 | 164 | 0.0 | 0.9 | 0.00 | 0.22 | 0.22 | 85 | 1038.9 |
| 20260904010104 | 77 | 0.0 | 0.0 | 0.00 | 0.22 | 0.22 | 85 | 1038.8 | |
| 20260904005522 | 77 | 0.0 | 0.0 | 0.00 | 0.22 | 0.22 | 85 | 1038.8 | |
| 20260904005039 | 78 | 0.0 | 0.0 | 0.00 | 0.22 | 0.22 | 84 | 1038.8 | |
| 20260904004536 | 78 | 0.0 | 0.0 | 0.00 | 0.22 | 0.22 | 84 | 1038.9 | |
| 20260904004032 | 78 | 0.0 | 0.0 | 0.00 | 0.22 | 0.22 | 83 | 1038.9 | |
| 20260904003530 | 79 | 0.0 | 0.0 | 0.00 | 0.22 | 0.22 | 83 | 1038.9 | |
| 20260904003027 | 79 | 0.0 | 0.0 | 0.00 | 0.22 | 0.22 | 83 | 1038.7 | |
| 20260904002524 | 80 | 0.0 | 0.0 | 0.00 | 0.22 | 0.22 | 82 | 1038.7 | |
| 20260904002041 | 80 | 0.0 | 0.0 | 0.00 | 0.22 | 0.22 | 82 | 1038.9 | |
| 20260904001518 | 80 | 164 | 0.0 | 1.7 | 0.00 | 0.22 | 0.22 | 82 | 1038.9 |
| 20260904001035 | 80 | 163 | 0.0 | 0.9 | 0.00 | 0.22 | 0.22 | 82 | 1038.9 |
| 20260904000532 | 80 | 163 | 0.0 | 1.7 | 0.00 | 0.22 | 0.22 | 81 | 1038.8 |
| 20260904000049 | 81 | 163 | 0.0 | 0.9 | 0.00 | 0.22 | 0.22 | 81 | 1038.9 |
| 20260903235526 | 81 | 163 | 0.9 | 2.6 | 0.00 | 0.22 | 0.22 | 81 | 1038.8 |
| 20260903235024 | 81 | 163 | 0.0 | 0.9 | 0.00 | 0.22 | 0.22 | 80 | 1038.9 |
| 20260903234523 | 81 | 0.0 | 0.0 | 0.00 | 0.22 | 0.22 | 80 | 1039.1 | |
| 20260903234018 | 81 | 0.0 | 0.0 | 0.00 | 0.22 | 0.22 | 80 | 1039.1 | |
| 20260903233533 | 81 | 163 | 0.0 | 0.9 | 0.00 | 0.22 | 0.22 | 80 | 1039.1 |
| 20260903233030 | 81 | 163 | 0.0 | 1.7 | 0.00 | 0.22 | 0.22 | 79 | 1039.2 |
| 20260903232527 | 81 | 163 | 0.0 | 0.9 | 0.00 | 0.22 | 0.22 | 80 | 1039.1 |
| 20260903232025 | 81 | 163 | 0.9 | 2.6 | 0.00 | 0.22 | 0.22 | 79 | 1039.1 |
| 20260903231522 | 81 | 164 | 0.0 | 0.9 | 0.00 | 0.22 | 0.22 | 79 | 1039.1 |
| 20260903231019 | 81 | 164 | 0.9 | 2.6 | 0.00 | 0.22 | 0.22 | 79 | 1039.3 |
| 20260903230555 | 81 | 163 | 0.0 | 0.9 | 0.00 | 0.22 | 0.22 | 78 | 1039.1 |
| 20260903230052 | 82 | 163 | 0.0 | 1.7 | 0.00 | 0.22 | 0.22 | 77 | 1039.1 |
| 20260903225529 | 82 | 163 | 0.9 | 1.7 | 0.00 | 0.22 | 0.22 | 77 | 1038.9 |
| 20260903225026 | 82 | 163 | 0.9 | 2.6 | 0.00 | 0.22 | 0.22 | 78 | 1039.1 |
| 20260903224543 | 82 | 159 | 0.9 | 3.5 | 0.00 | 0.22 | 0.22 | 78 | 1039.1 |
| 20260903224040 | 82 | 151 | 0.0 | 0.9 | 0.00 | 0.22 | 0.22 | 78 | 1039.1 |
| 20260903223517 | 82 | 151 | 0.0 | 0.9 | 0.00 | 0.22 | 0.22 | 77 | 1039.2 |
| 20260903223033 | 82 | 151 | 0.0 | 1.7 | 0.00 | 0.22 | 0.22 | 77 | 1039.1 |
| 20260903222530 | 82 | 150 | 0.9 | 1.7 | 0.00 | 0.22 | 0.22 | 76 | 1039.0 |
| 20260903222027 | 82 | 140 | 0.9 | 1.7 | 0.00 | 0.22 | 0.22 | 76 | 1039.1 |
| 20260903221524 | 83 | 158 | 1.7 | 3.5 | 0.00 | 0.22 | 0.22 | 76 | 1039.1 |
| 20260903221022 | 83 | 129 | 0.9 | 2.6 | 0.00 | 0.22 | 0.22 | 75 | 1039.2 |
| 20260903220519 | 83 | 123 | 0.9 | 1.7 | 0.00 | 0.22 | 0.22 | 76 | 1039.2 |
| 20260903220035 | 83 | 166 | 0.9 | 2.6 | 0.00 | 0.22 | 0.22 | 75 | 1039.2 |
| 20260903215531 | 83 | 157 | 0.9 | 3.5 | 0.00 | 0.22 | 0.22 | 75 | 1039.3 |
| 20260903215029 | 83 | 159 | 1.7 | 5.2 | 0.00 | 0.22 | 0.22 | 74 | 1039.3 |
| 20260903214526 | 83 | 164 | 0.9 | 3.5 | 0.00 | 0.22 | 0.22 | 74 | 1039.4 |
| 20260903214023 | 84 | 161 | 1.7 | 5.2 | 0.00 | 0.22 | 0.22 | 74 | 1039.4 |
| 20260903213520 | 84 | 153 | 0.9 | 3.5 | 0.00 | 0.22 | 0.22 | 74 | 1039.3 |
| 20260903213017 | 84 | 140 | 0.9 | 2.6 | 0.00 | 0.22 | 0.22 | 74 | 1039.6 |
| 20260903212533 | 84 | 152 | 0.9 | 1.7 | 0.00 | 0.22 | 0.22 | 74 | 1039.8 |
| 20260903212030 | 84 | 152 | 0.9 | 2.6 | 0.00 | 0.22 | 0.22 | 74 | 1039.8 |
| 20260903211527 | 84 | 152 | 0.9 | 2.6 | 0.00 | 0.22 | 0.22 | 75 | 1039.7 |
| 20260903211044 | 83 | 147 | 1.7 | 5.2 | 0.00 | 0.22 | 0.22 | 76 | 1039.7 |
| 20260903210521 | 83 | 159 | 1.7 | 5.2 | 0.00 | 0.22 | 0.22 | 77 | 1039.7 |
| 20260903210038 | 82 | 119 | 0.9 | 3.5 | 0.00 | 0.22 | 0.22 | 78 | 1039.8 |
| 20260903205534 | 82 | 117 | 0.9 | 2.6 | 0.00 | 0.22 | 0.22 | 78 | 1040.0 |
| 20260903205051 | 82 | 115 | 0.9 | 1.7 | 0.00 | 0.22 | 0.22 | 79 | 1040.0 |
| 20260903204548 | 81 | 110 | 0.9 | 2.6 | 0.00 | 0.22 | 0.22 | 78 | 1039.8 |
| 20260903204025 | 81 | 101 | 0.9 | 2.6 | 0.00 | 0.22 | 0.22 | 78 | 1039.8 |
| 20260903203522 | 81 | 101 | 0.9 | 3.5 | 0.00 | 0.22 | 0.22 | 78 | 1039.8 |
| 20260903203019 | 81 | 147 | 1.7 | 6.1 | 0.00 | 0.22 | 0.22 | 78 | 1039.8 |
| 20260903202517 | 81 | 183 | 0.9 | 2.6 | 0.00 | 0.22 | 0.22 | 78 | 1039.8 |
| 20260903202032 | 81 | 191 | 0.0 | 0.9 | 0.00 | 0.22 | 0.22 | 78 | 1040.0 |
| 20260903201530 | 81 | 191 | 0.0 | 0.9 | 0.00 | 0.22 | 0.22 | 78 | 1040.1 |
| 20260903201047 | 81 | 0.0 | 0.0 | 0.00 | 0.22 | 0.22 | 78 | 1039.9 | |
| 20260903200524 | 81 | 191 | 0.0 | 0.9 | 0.00 | 0.22 | 0.22 | 78 | 1039.9 |
| 20260903200021 | 81 | 191 | 0.0 | 0.9 | 0.00 | 0.22 | 0.22 | 77 | 1040.0 |
| 20260903195518 | 81 | 0.0 | 0.0 | 0.00 | 0.22 | 0.22 | 76 | 1040.0 | |
| 20260903195034 | 81 | 182 | 0.9 | 5.2 | 0.00 | 0.22 | 0.22 | 77 | 1040.1 |
| 20260903194531 | 81 | 158 | 0.9 | 1.7 | 0.00 | 0.22 | 0.22 | 76 | 1040.1 |
| 20260903194028 | 81 | 157 | 1.7 | 3.5 | 0.00 | 0.22 | 0.22 | 77 | 1040.1 |
| 20260903193525 | 81 | 143 | 0.9 | 2.6 | 0.00 | 0.22 | 0.22 | 78 | 1040.2 |
| 20260903193022 | 81 | 143 | 0.0 | 0.9 | 0.00 | 0.22 | 0.22 | 79 | 1040.4 |
| 20260903192519 | 81 | 149 | 0.9 | 3.5 | 0.00 | 0.22 | 0.22 | 79 | 1040.6 |
| 20260903192016 | 81 | 180 | 0.9 | 6.1 | 0.00 | 0.22 | 0.22 | 81 | 1040.6 |
| 20260903191552 | 81 | 187 | 0.0 | 0.9 | 0.00 | 0.22 | 0.22 | 82 | 1040.7 |
| 20260903191029 | 81 | 187 | 0.0 | 0.9 | 0.00 | 0.22 | 0.22 | 81 | 1040.9 |
| 20260903190526 | 81 | 0.0 | 0.0 | 0.00 | 0.22 | 0.22 | 81 | 1040.9 | |
| 20260903185540 | 81 | 0.0 | 0.0 | 0.00 | 0.22 | 0.22 | 80 | 1040.6 | |
| 20260903185017 | 81 | 187 | 0.9 | 1.7 | 0.00 | 0.22 | 0.22 | 80 | 1040.5 |
| 20260903184533 | 80 | 187 | 0.0 | 0.9 | 0.00 | 0.22 | 0.22 | 80 | 1040.4 |
| 20260903184050 | 80 | 184 | 1.7 | 5.2 | 0.00 | 0.22 | 0.22 | 80 | 1040.4 |
| 20260903183528 | 80 | 155 | 0.9 | 2.6 | 0.00 | 0.22 | 0.22 | 81 | 1040.1 |
| 20260903183024 | 80 | 148 | 0.9 | 3.5 | 0.00 | 0.22 | 0.22 | 82 | 1040.1 |
| 20260903182521 | 79 | 162 | 1.7 | 5.2 | 0.00 | 0.22 | 0.22 | 82 | 1040.1 |
| 20260903182039 | 79 | 157 | 1.7 | 6.1 | 0.00 | 0.22 | 0.22 | 82 | 1040.1 |
| 20260903181537 | 79 | 172 | 0.0 | 3.5 | 0.00 | 0.22 | 0.22 | 82 | 1040.3 |
| 20260903181033 | 79 | 172 | 0.9 | 2.6 | 0.00 | 0.22 | 0.22 | 83 | 1040.4 |
| 20260903180530 | 78 | 172 | 0.9 | 2.6 | 0.00 | 0.22 | 0.22 | 84 | 1040.4 |
| 20260903180048 | 78 | 172 | 0.0 | 2.6 | 0.00 | 0.22 | 0.22 | 83 | 1040.6 |
| 20260903175525 | 78 | 172 | 0.9 | 2.6 | 0.00 | 0.22 | 0.22 | 84 | 1040.6 |
| 20260903175022 | 78 | 189 | 0.9 | 3.5 | 0.00 | 0.22 | 0.22 | 85 | 1040.5 |
| 20260903174539 | 77 | 203 | 0.0 | 0.9 | 0.00 | 0.22 | 0.22 | 86 | 1040.5 |
| 20260903174016 | 77 | 203 | 0.0 | 1.7 | 0.00 | 0.22 | 0.22 | 87 | 1040.5 |
| 20260903173532 | 76 | 203 | 0.0 | 2.6 | 0.00 | 0.22 | 0.22 | 88 | 1040.7 |
| 20260903173028 | 76 | 203 | 0.0 | 0.9 | 0.00 | 0.22 | 0.22 | 87 | 1040.8 |
| 20260903172526 | 75 | 203 | 0.0 | 1.7 | 0.00 | 0.22 | 0.22 | 88 | 1040.8 |
| 20260903172023 | 75 | 203 | 0.0 | 0.9 | 0.00 | 0.22 | 0.22 | 89 | 1040.5 |
| 20260903171520 | 74 | 203 | 0.0 | 3.5 | 0.00 | 0.22 | 0.22 | 91 | 1040.3 |
| 20260903171018 | 73 | 0.0 | 0.0 | 0.01 | 0.22 | 0.22 | 92 | 1040.5 | |
| 20260903170533 | 72 | 190 | 0.0 | 1.7 | 0.02 | 0.22 | 0.22 | 92 | 1040.4 |
| 20260903170030 | 72 | 0.0 | 0.0 | 0.02 | 0.22 | 0.22 | 92 | 1040.3 | |
| 20260903165527 | 72 | 183 | 0.0 | 0.9 | 0.02 | 0.22 | 0.22 | 92 | 1040.7 |
| 20260903165024 | 71 | 0.0 | 0.0 | 0.02 | 0.22 | 0.22 | 92 | 1040.9 | |
| 20260903164521 | 71 | 0.0 | 0.0 | 0.02 | 0.22 | 0.22 | 92 | 1040.8 | |
| 20260903164018 | 71 | 183 | 0.0 | 1.7 | 0.03 | 0.22 | 0.22 | 92 | 1040.6 |
| 20260903163534 | 71 | 183 | 0.9 | 5.2 | 0.04 | 0.22 | 0.22 | 92 | 1040.3 |
| 20260903163050 | 71 | 159 | 1.7 | 3.5 | 0.04 | 0.22 | 0.22 | 92 | 1040.5 |
| 20260903162527 | 71 | 181 | 0.0 | 2.6 | 0.04 | 0.22 | 0.22 | 92 | 1040.7 |
| 20260903162024 | 71 | 215 | 0.0 | 1.7 | 0.05 | 0.22 | 0.22 | 92 | 1040.8 |
| 20260903161522 | 71 | 0.0 | 0.0 | 0.05 | 0.22 | 0.22 | 92 | 1041.6 | |
| 20260903161019 | 70 | 0.0 | 0.0 | 0.04 | 0.21 | 0.21 | 92 | 1042.0 | |
| 20260903160516 | 70 | 0.0 | 0.0 | 0.05 | 0.20 | 0.20 | 92 | 1041.7 | |
| 20260903160032 | 70 | 0.0 | 0.0 | 0.05 | 0.20 | 0.20 | 92 | 1041.5 | |
| 20260903155529 | 70 | 0.0 | 0.0 | 0.05 | 0.20 | 0.20 | 92 | 1041.7 | |
| 20260903155026 | 70 | 224 | 0.0 | 0.9 | 0.04 | 0.20 | 0.20 | 92 | 1041.2 |
| 20260903154523 | 70 | 229 | 0.9 | 1.7 | 0.04 | 0.20 | 0.20 | 92 | 1040.9 |
| 20260903154040 | 70 | 0.0 | 0.0 | 0.03 | 0.19 | 0.19 | 92 | 1041.0 | |
| 20260903153517 | 70 | 246 | 0.0 | 0.9 | 0.02 | 0.18 | 0.18 | 92 | 1040.9 |
| 20260903153033 | 70 | 246 | 0.0 | 1.7 | 0.02 | 0.18 | 0.18 | 92 | 1041.1 |
| 20260903152530 | 70 | 247 | 0.0 | 1.7 | 0.02 | 0.18 | 0.18 | 92 | 1041.5 |
| 20260903152026 | 70 | 265 | 0.0 | 2.6 | 0.01 | 0.17 | 0.17 | 92 | 1041.3 |
| 20260903151524 | 70 | 89 | 0.0 | 0.9 | 0.01 | 0.17 | 0.17 | 92 | 1040.3 |
| 20260903151021 | 70 | 0.0 | 0.0 | 0.01 | 0.17 | 0.17 | 92 | 1040.3 | |
| 20260903150518 | 71 | 0.0 | 0.0 | 0.00 | 0.16 | 0.16 | 92 | 1040.8 | |
| 20260903150035 | 70 | 0.0 | 0.0 | 0.00 | 0.16 | 0.16 | 92 | 1040.8 | |
| 20260903145531 | 70 | 0.0 | 0.0 | 0.00 | 0.16 | 0.16 | 92 | 1040.4 | |
| 20260903145029 | 70 | 0.0 | 0.0 | 0.00 | 0.16 | 0.16 | 92 | 1040.4 | |
| 20260903144525 | 70 | 0.0 | 0.0 | 0.00 | 0.16 | 0.16 | 92 | 1040.4 | |
| 20260903144022 | 70 | 0.0 | 0.0 | 0.00 | 0.16 | 0.16 | 92 | 1040.3 | |
| 20260903143539 | 70 | 0.0 | 0.0 | 0.01 | 0.16 | 0.16 | 92 | 1040.6 | |
| 20260903143016 | 70 | 0.0 | 0.0 | 0.01 | 0.16 | 0.16 | 92 | 1040.6 | |
| 20260903142532 | 69 | 0.0 | 0.0 | 0.01 | 0.16 | 0.16 | 92 | 1040.5 | |
| 20260903142030 | 69 | 0.0 | 0.0 | 0.02 | 0.16 | 0.16 | 92 | 1040.9 | |
| 20260903141527 | 69 | 0.0 | 0.0 | 0.02 | 0.16 | 0.16 | 92 | 1041.0 | |
| 20260903141025 | 69 | 0.0 | 0.0 | 0.03 | 0.16 | 0.16 | 92 | 1041.0 | |
| 20260903140542 | 69 | 0.0 | 0.0 | 0.04 | 0.16 | 0.16 | 92 | 1041.0 | |
| 20260903140019 | 69 | 0.0 | 0.0 | 0.04 | 0.15 | 0.15 | 92 | 1041.2 |